CKS9168 KFAR-KNKT

Flight info

Callsign CKS9168
Flight time 2h 27m
Altitude 33000
Route TTAIL Q140 EEGEE PIRPL VIO J34 DJB J162 AIR J34 BUCKO MELTN KATFI
Aircraft B77L/H-SDE1E2E3FGHIJ2J3J4J5M1RWXY/LB1D1

Departure

Time 2026-04-11 03:47
Airport Hector International Airport (KFAR)

Arrival

Time 2026-04-11 06:14
Airport Cherry Point MCAS / Cunningham Field/ (KNKT)
Time Latitude Longitude Altitude Speed Heading
2026-04-11 03:25 46.92965 -96.82268 910 ft 0 kts 63°
2026-04-11 03:41 46.92965 -96.82269 910 ft 0 kts 63°
2026-04-11 03:41 46.92965 -96.82268 910 ft 0 kts 63°
2026-04-11 03:41 46.92965 -96.82269 910 ft 0 kts 63°
2026-04-11 03:43 46.92958 -96.82228 910 ft 7 kts 127°
2026-04-11 03:44 46.92926 -96.82168 909 ft 8 kts 103°
2026-04-11 03:44 46.92922 -96.82078 910 ft 9 kts 95°
2026-04-11 03:44 46.92918 -96.81987 911 ft 9 kts 86°
2026-04-11 03:44 46.92968 -96.81944 911 ft 10 kts 360°
2026-04-11 03:45 46.93079 -96.81943 909 ft 20 kts
2026-04-11 03:45 46.93211 -96.81942 911 ft 15 kts
2026-04-11 03:45 46.93272 -96.81877 912 ft 12 kts 79°
2026-04-11 03:45 46.93272 -96.81778 910 ft 10 kts 91°
2026-04-11 03:46 46.93267 -96.81668 911 ft 11 kts 108°
2026-04-11 03:46 46.93204 -96.81614 908 ft 11 kts 179°
2026-04-11 03:46 46.93193 -96.81615 908 ft 6 kts 181°
2026-04-11 03:46 46.92905 -96.81617 909 ft 81 kts 180°
2026-04-11 03:47 46.92096 -96.81626 912 ft 150 kts 180°
2026-04-11 03:47 46.90889 -96.81633 1146 ft 180 kts 178°
2026-04-11 03:47 46.89654 -96.81618 2035 ft 177 kts 179°
2026-04-11 03:47 46.88374 -96.81567 2412 ft 196 kts 179°
2026-04-11 03:48 46.86982 -96.81147 2596 ft 217 kts 155°
2026-04-11 03:48 46.85589 -96.80061 2960 ft 235 kts 154°
2026-04-11 03:48 46.84088 -96.78947 3503 ft 247 kts 155°
2026-04-11 03:48 46.82518 -96.77817 4158 ft 256 kts 156°
2026-04-11 03:49 46.80899 -96.76674 4894 ft 261 kts 156°
2026-04-11 03:49 46.79238 -96.75517 5633 ft 267 kts 156°
2026-04-11 03:49 46.77543 -96.74348 6336 ft 273 kts 156°
2026-04-11 03:49 46.75804 -96.73158 7024 ft 278 kts 156°
2026-04-11 03:50 46.74035 -96.71953 7706 ft 283 kts 157°
2026-04-11 03:50 46.72262 -96.70749 8390 ft 287 kts 158°
2026-04-11 03:50 46.70455 -96.69463 9023 ft 292 kts 150°
2026-04-11 03:50 46.69017 -96.67312 9519 ft 306 kts 118°
2026-04-11 03:51 46.68332 -96.64355 10109 ft 312 kts 104°
2026-04-11 03:51 46.67818 -96.61210 10440 ft 329 kts 103°
2026-04-11 03:51 46.67288 -96.57844 10613 ft 352 kts 103°
2026-04-11 03:51 46.66729 -96.54256 10800 ft 375 kts 103°
2026-04-11 03:52 46.66134 -96.50451 11107 ft 393 kts 103°
2026-04-11 03:52 46.65513 -96.46517 11668 ft 403 kts 103°
2026-04-11 03:52 46.64873 -96.42502 12384 ft 410 kts 103°
2026-04-11 03:52 46.64219 -96.38442 13193 ft 414 kts 103°
2026-04-11 03:53 46.63553 -96.34326 13988 ft 420 kts 103°
2026-04-11 03:53 46.62883 -96.30216 14664 ft 425 kts 103°
2026-04-11 03:53 46.62194 -96.26006 15358 ft 430 kts 103°
2026-04-11 03:53 46.61495 -96.21747 16072 ft 434 kts 103°
2026-04-11 03:54 46.60789 -96.17464 16772 ft 438 kts 103°
2026-04-11 03:54 46.60073 -96.13127 17449 ft 443 kts 103°
2026-04-11 03:54 46.59347 -96.08743 18110 ft 448 kts 103°
2026-04-11 03:54 46.58612 -96.04313 18752 ft 453 kts 103°
2026-04-11 03:55 46.57867 -95.99838 19319 ft 457 kts 103°
2026-04-11 03:55 46.57113 -95.95314 19879 ft 462 kts 103°
2026-04-11 03:55 46.56358 -95.90800 20423 ft 467 kts 103°
2026-04-11 03:55 46.55585 -95.86197 20973 ft 471 kts 103°
2026-04-11 03:56 46.54804 -95.81549 21507 ft 476 kts 103°
2026-04-11 03:56 46.54012 -95.76851 22061 ft 480 kts 103°
2026-04-11 03:56 46.53211 -95.72116 22598 ft 485 kts 103°
2026-04-11 03:56 46.52399 -95.67326 23131 ft 490 kts 103°
2026-04-11 03:57 46.51579 -95.62504 23659 ft 494 kts 103°
2026-04-11 03:57 46.50750 -95.57642 24135 ft 498 kts 103°
2026-04-11 03:57 46.49912 -95.52736 24572 ft 503 kts 103°
2026-04-11 03:57 46.49065 -95.47796 25015 ft 506 kts 103°
2026-04-11 03:58 46.48209 -95.42821 25448 ft 510 kts 103°
2026-04-11 03:58 46.47346 -95.37811 25871 ft 514 kts 103°
2026-04-11 03:58 46.46473 -95.32765 26291 ft 518 kts 103°
2026-04-11 03:58 46.45601 -95.27739 26687 ft 521 kts 103°
2026-04-11 03:59 46.44711 -95.22617 27107 ft 525 kts 103°
2026-04-11 03:59 46.43813 -95.17472 27502 ft 529 kts 103°
2026-04-11 03:59 46.42905 -95.12279 27902 ft 533 kts 103°
2026-04-11 03:59 46.41989 -95.07055 28285 ft 536 kts 103°
2026-04-11 04:00 46.41064 -95.01799 28655 ft 540 kts 103°
2026-04-11 04:00 46.40130 -94.96509 29010 ft 543 kts 103°
2026-04-11 04:00 46.39187 -94.91180 29365 ft 547 kts 103°
2026-04-11 04:00 46.38238 -94.85832 29743 ft 549 kts 103°
2026-04-11 04:01 46.37284 -94.80475 30218 ft 549 kts 103°
2026-04-11 04:01 46.36328 -94.75125 30685 ft 548 kts 103°
2026-04-11 04:01 46.35372 -94.69789 31121 ft 548 kts 103°
2026-04-11 04:01 46.34407 -94.64419 31534 ft 547 kts 103°
2026-04-11 04:02 46.33448 -94.59098 31949 ft 547 kts 103°
2026-04-11 04:02 46.32485 -94.53771 32346 ft 546 kts 103°
2026-04-11 04:02 46.31523 -94.48463 32727 ft 546 kts 103°
2026-04-11 04:02 46.30568 -94.43210 33110 ft 546 kts 103°
2026-04-11 04:03 46.29601 -94.37901 33355 ft 548 kts 103°
2026-04-11 04:03 46.28623 -94.32548 33368 ft 550 kts 103°
2026-04-11 04:03 46.26665 -94.21885 33377 ft 546 kts 103°
2026-04-11 04:04 46.24711 -94.11309 33370 ft 543 kts 103°
2026-04-11 04:04 46.22754 -94.00771 33384 ft 542 kts 103°
2026-04-11 04:05 46.20790 -93.90252 33387 ft 543 kts 103°
2026-04-11 04:05 46.18814 -93.79728 33400 ft 544 kts 103°
2026-04-11 04:06 46.16823 -93.69186 33395 ft 545 kts 104°
2026-04-11 04:06 46.15155 -93.60401 33392 ft 546 kts 104°
2026-04-11 04:07 46.12809 -93.48109 33392 ft 547 kts 104°
2026-04-11 04:07 46.11108 -93.39249 33386 ft 548 kts 104°
2026-04-11 04:08 46.09079 -93.28734 33391 ft 548 kts 104°
2026-04-11 04:08 46.07028 -93.18160 33399 ft 548 kts 104°
2026-04-11 04:09 46.04968 -93.07603 33400 ft 548 kts 104°
2026-04-11 04:09 46.02898 -92.97047 33388 ft 548 kts 104°
2026-04-11 04:10 46.00818 -92.86499 33384 ft 548 kts 105°
2026-04-11 04:10 45.98726 -92.75949 33371 ft 547 kts 105°
2026-04-11 04:11 45.96629 -92.65427 33372 ft 547 kts 105°
2026-04-11 04:11 45.94522 -92.54913 33371 ft 547 kts 105°
2026-04-11 04:12 45.92419 -92.44475 33365 ft 547 kts 105°
2026-04-11 04:12 45.90295 -92.33983 33363 ft 547 kts 105°
2026-04-11 04:13 45.88160 -92.23488 33370 ft 547 kts 105°
2026-04-11 04:13 45.86031 -92.12984 33372 ft 547 kts 105°
2026-04-11 04:14 45.83978 -92.02473 33383 ft 548 kts 105°
2026-04-11 04:14 45.81931 -91.91947 33382 ft 548 kts 105°
2026-04-11 04:15 45.78825 -91.76194 33388 ft 548 kts 105°
2026-04-11 04:16 45.76731 -91.65687 33389 ft 548 kts 106°
2026-04-11 04:16 45.74630 -91.55199 33387 ft 548 kts 106°
2026-04-11 04:17 45.72518 -91.44708 33390 ft 548 kts 106°
2026-04-11 04:17 45.70414 -91.34310 33391 ft 548 kts 106°
2026-04-11 04:18 45.68283 -91.23837 33396 ft 548 kts 107°
2026-04-11 04:18 45.66142 -91.13368 33388 ft 548 kts 107°
2026-04-11 04:19 45.63992 -91.02904 33393 ft 548 kts 107°
2026-04-11 04:19 45.61833 -90.92457 33388 ft 548 kts 107°
2026-04-11 04:20 45.59666 -90.82025 33399 ft 548 kts 107°
2026-04-11 04:20 45.57487 -90.71586 33397 ft 548 kts 108°
2026-04-11 04:21 45.55300 -90.61163 33382 ft 549 kts 108°
2026-04-11 04:21 45.53113 -90.50796 33376 ft 549 kts 108°
2026-04-11 04:22 45.50904 -90.40375 33384 ft 549 kts 108°
2026-04-11 04:22 45.48685 -90.29959 33397 ft 549 kts 108°
2026-04-11 04:23 45.46457 -90.19558 33392 ft 549 kts 109°
2026-04-11 04:23 45.44220 -90.09159 33384 ft 549 kts 109°
2026-04-11 04:24 45.41969 -89.98758 33257 ft 549 kts 105°
2026-04-11 04:24 45.39736 -89.88491 33354 ft 545 kts 105°
2026-04-11 04:25 45.37486 -89.78183 33368 ft 545 kts 105°
2026-04-11 04:25 45.35231 -89.67901 33397 ft 544 kts 105°
2026-04-11 04:26 45.32963 -89.57617 33378 ft 545 kts 105°
2026-04-11 04:26 45.30686 -89.47338 33387 ft 545 kts 106°
2026-04-11 04:27 45.28419 -89.37127 33392 ft 545 kts 105°
2026-04-11 04:27 45.26134 -89.26856 33379 ft 546 kts 106°
2026-04-11 04:28 45.23842 -89.16592 33369 ft 546 kts 106°
2026-04-11 04:28 45.21534 -89.06315 33370 ft 547 kts 106°
2026-04-11 04:29 45.19211 -88.96016 33373 ft 547 kts 106°
2026-04-11 04:29 45.16881 -88.85753 33384 ft 546 kts 107°
2026-04-11 04:29 45.15407 -88.80790 33377 ft 548 kts 118°
2026-04-11 04:30 45.13415 -88.76279 33396 ft 546 kts 128°
2026-04-11 04:30 45.08211 -88.68556 33406 ft 539 kts 144°
2026-04-11 04:31 45.02346 -88.61928 33410 ft 540 kts 145°
2026-04-11 04:31 44.96463 -88.55265 33397 ft 542 kts 144°
2026-04-11 04:32 44.90612 -88.48522 33397 ft 543 kts 144°
2026-04-11 04:32 44.84771 -88.41755 33394 ft 544 kts 144°
2026-04-11 04:33 44.78916 -88.34992 33408 ft 544 kts 144°
2026-04-11 04:33 44.73060 -88.28256 33400 ft 543 kts 144°
2026-04-11 04:34 44.67198 -88.21537 33396 ft 543 kts 144°
2026-04-11 04:34 44.61379 -88.14884 33404 ft 542 kts 144°
2026-04-11 04:35 44.55521 -88.08204 33400 ft 542 kts 144°
2026-04-11 04:35 44.49658 -88.01535 33397 ft 542 kts 144°
2026-04-11 04:36 44.43795 -87.94885 33406 ft 542 kts 144°
2026-04-11 04:36 44.37928 -87.88245 33411 ft 542 kts 144°
2026-04-11 04:37 44.32092 -87.81657 33422 ft 542 kts 145°
2026-04-11 04:37 44.26444 -87.74643 33419 ft 546 kts 135°
2026-04-11 04:38 44.21421 -87.66668 33434 ft 547 kts 133°
2026-04-11 04:38 44.16425 -87.58650 33421 ft 548 kts 133°
2026-04-11 04:39 44.11393 -87.50684 33425 ft 548 kts 134°
2026-04-11 04:39 44.06332 -87.42754 33427 ft 548 kts 134°
2026-04-11 04:40 44.01263 -87.34845 33429 ft 548 kts 134°
2026-04-11 04:40 43.96193 -87.26948 33433 ft 548 kts 134°
2026-04-11 04:41 43.91113 -87.19053 33433 ft 548 kts 134°
2026-04-11 04:41 43.86024 -87.11165 33428 ft 548 kts 134°
2026-04-11 04:42 43.80933 -87.03295 33434 ft 548 kts 134°
2026-04-11 04:42 43.75862 -86.95479 33434 ft 549 kts 135°
2026-04-11 04:43 43.70755 -86.87630 33430 ft 549 kts 135°
2026-04-11 04:43 43.65635 -86.79781 33431 ft 549 kts 135°
2026-04-11 04:44 43.60519 -86.71960 33430 ft 549 kts 135°
2026-04-11 04:44 43.55392 -86.64145 33429 ft 549 kts 135°
2026-04-11 04:45 43.50264 -86.56349 33428 ft 549 kts 135°
2026-04-11 04:45 43.45133 -86.48569 33431 ft 548 kts 135°
2026-04-11 04:46 43.39996 -86.40802 33431 ft 548 kts 135°
2026-04-11 04:46 43.34863 -86.33061 33429 ft 548 kts 135°
2026-04-11 04:47 43.29721 -86.25328 33427 ft 548 kts 135°
2026-04-11 04:47 43.24581 -86.17619 33431 ft 547 kts 135°
2026-04-11 04:48 43.19472 -86.09977 33430 ft 547 kts 135°
2026-04-11 04:48 43.14326 -86.02300 33430 ft 547 kts 135°
2026-04-11 04:49 43.09173 -85.94634 33427 ft 547 kts 136°
2026-04-11 04:49 43.04020 -85.86987 33431 ft 547 kts 136°
2026-04-11 04:50 42.98864 -85.79355 33419 ft 547 kts 136°
2026-04-11 04:50 42.93700 -85.71732 33414 ft 546 kts 136°
2026-04-11 04:51 42.88531 -85.64122 33414 ft 546 kts 136°
2026-04-11 04:51 42.83360 -85.56526 33410 ft 546 kts 136°
2026-04-11 04:52 42.78617 -85.48411 33406 ft 550 kts 125°
2026-04-11 04:52 42.74905 -85.39287 33433 ft 551 kts 115°
2026-04-11 04:53 42.71710 -85.29858 33412 ft 552 kts 115°
2026-04-11 04:53 42.68427 -85.20435 33432 ft 552 kts 116°
2026-04-11 04:54 42.65090 -85.11024 33422 ft 552 kts 116°
2026-04-11 04:54 42.61772 -85.01688 33410 ft 553 kts 116°
2026-04-11 04:55 42.58430 -84.92296 33383 ft 553 kts 116°
2026-04-11 04:55 42.55071 -84.82889 33386 ft 553 kts 116°
2026-04-11 04:56 42.51709 -84.73509 33400 ft 553 kts 116°
2026-04-11 04:56 42.48887 -84.65656 33402 ft 553 kts 116°
2026-04-11 04:57 42.45526 -84.56332 33390 ft 553 kts 116°
2026-04-11 04:57 42.42141 -84.46974 33400 ft 553 kts 116°
2026-04-11 04:58 42.38742 -84.37624 33406 ft 554 kts 117°
2026-04-11 04:58 42.35338 -84.28285 33404 ft 554 kts 117°
2026-04-11 04:59 42.31923 -84.18943 33401 ft 554 kts 117°
2026-04-11 04:59 42.28504 -84.09620 33405 ft 554 kts 117°
2026-04-11 05:00 42.25077 -84.00305 33392 ft 554 kts 117°
2026-04-11 05:00 42.21641 -83.90997 33391 ft 554 kts 117°
2026-04-11 05:01 42.18219 -83.81757 33378 ft 554 kts 117°
2026-04-11 05:01 42.14766 -83.72463 33388 ft 555 kts 117°
2026-04-11 05:02 42.11301 -83.63168 33386 ft 555 kts 117°
2026-04-11 05:02 42.07831 -83.53882 33394 ft 556 kts 117°
2026-04-11 05:03 42.04237 -83.44665 33400 ft 554 kts 123°
2026-04-11 05:03 41.99885 -83.36144 33398 ft 552 kts 128°
2026-04-11 05:04 41.95400 -83.27759 33392 ft 553 kts 128°
2026-04-11 05:04 41.90946 -83.19334 33395 ft 553 kts 128°
2026-04-11 05:05 41.84327 -83.06730 33393 ft 553 kts 128°
2026-04-11 05:05 41.79885 -82.98305 33386 ft 553 kts 128°
2026-04-11 05:06 41.75437 -82.89900 33380 ft 553 kts 128°
2026-04-11 05:06 41.70987 -82.81511 33388 ft 552 kts 128°
2026-04-11 05:07 41.66526 -82.73137 33381 ft 552 kts 128°
2026-04-11 05:07 41.62087 -82.64845 33378 ft 552 kts 129°
2026-04-11 05:08 41.57616 -82.56507 33383 ft 551 kts 129°
2026-04-11 05:08 41.53143 -82.48182 33383 ft 551 kts 129°
2026-04-11 05:09 41.48662 -82.39885 33277 ft 550 kts 128°
2026-04-11 05:09 41.46447 -82.35796 33355 ft 539 kts 127°
2026-04-11 05:09 41.44267 -82.31775 33378 ft 531 kts 127°
2026-04-11 05:10 41.39942 -82.23808 33399 ft 531 kts 127°
2026-04-11 05:10 41.35274 -82.16200 33394 ft 530 kts 137°
2026-04-11 05:11 41.29743 -82.09799 33403 ft 526 kts 146°
2026-04-11 05:11 41.23877 -82.03932 33389 ft 528 kts 146°
2026-04-11 05:12 41.18035 -81.98007 33377 ft 529 kts 146°
2026-04-11 05:12 41.12246 -81.92079 33381 ft 528 kts 145°
2026-04-11 05:13 41.06418 -81.86143 33382 ft 528 kts 146°
2026-04-11 05:13 41.00595 -81.80234 33375 ft 526 kts 146°
2026-04-11 05:14 40.94788 -81.74352 33378 ft 525 kts 146°
2026-04-11 05:14 40.88991 -81.68489 33376 ft 523 kts 146°
2026-04-11 05:15 40.83218 -81.62664 33365 ft 522 kts 146°
2026-04-11 05:15 40.77454 -81.56857 33362 ft 520 kts 146°
2026-04-11 05:16 40.71735 -81.51107 33363 ft 520 kts 146°
2026-04-11 05:16 40.65981 -81.45335 33354 ft 520 kts 146°
2026-04-11 05:17 40.60225 -81.39573 33354 ft 520 kts 146°
2026-04-11 05:17 40.54414 -81.33771 33359 ft 530 kts 149°
2026-04-11 05:18 40.48476 -81.27855 33353 ft 537 kts 148°
2026-04-11 05:18 40.42515 -81.21920 33332 ft 537 kts 149°
2026-04-11 05:19 40.36562 -81.16017 33335 ft 535 kts 148°
2026-04-11 05:19 40.30626 -81.10146 33327 ft 534 kts 149°
2026-04-11 05:20 40.24744 -81.04337 33314 ft 532 kts 149°
2026-04-11 05:20 40.18834 -80.98514 33314 ft 531 kts 149°
2026-04-11 05:21 40.12929 -80.92708 33319 ft 530 kts 149°
2026-04-11 05:21 40.07038 -80.86927 33315 ft 529 kts 149°
2026-04-11 05:22 40.01229 -80.80994 33312 ft 533 kts 143°
2026-04-11 05:22 39.96032 -80.74021 33314 ft 537 kts 137°
2026-04-11 05:23 39.90980 -80.66859 33303 ft 537 kts 137°
2026-04-11 05:23 39.85894 -80.59739 33287 ft 536 kts 137°
2026-04-11 05:24 39.80788 -80.52673 33281 ft 536 kts 137°
2026-04-11 05:24 39.75670 -80.45622 33273 ft 536 kts 137°
2026-04-11 05:25 39.70584 -80.38623 33264 ft 536 kts 137°
2026-04-11 05:25 39.65454 -80.31578 33269 ft 536 kts 137°
2026-04-11 05:26 39.60333 -80.24560 33278 ft 535 kts 137°
2026-04-11 05:26 39.55208 -80.17551 33283 ft 535 kts 137°
2026-04-11 05:27 39.50084 -80.10560 33282 ft 535 kts 137°
2026-04-11 05:27 39.44950 -80.03573 33282 ft 535 kts 138°
2026-04-11 05:28 39.39813 -79.96594 33273 ft 535 kts 138°
2026-04-11 05:28 39.34717 -79.89688 33279 ft 534 kts 137°
2026-04-11 05:29 39.29223 -79.83340 33269 ft 526 kts 149°
2026-04-11 05:29 39.23047 -79.78448 33251 ft 517 kts 160°
2026-04-11 05:30 39.16541 -79.74521 33269 ft 515 kts 161°
2026-04-11 05:30 39.10033 -79.70619 33282 ft 516 kts 161°
2026-04-11 05:31 39.03529 -79.66674 33282 ft 518 kts 160°
2026-04-11 05:31 38.97070 -79.62734 33302 ft 516 kts 160°
2026-04-11 05:32 38.90571 -79.58774 33266 ft 517 kts 160°
2026-04-11 05:32 38.84058 -79.54815 33282 ft 517 kts 160°
2026-04-11 05:33 38.77541 -79.50866 33267 ft 518 kts 161°
2026-04-11 05:33 38.71018 -79.46922 33256 ft 518 kts 160°
2026-04-11 05:34 38.64499 -79.42987 33255 ft 519 kts 160°
2026-04-11 05:34 38.57959 -79.39045 33249 ft 519 kts 160°
2026-04-11 05:35 38.51424 -79.35114 33243 ft 518 kts 160°
2026-04-11 05:35 38.44930 -79.31219 33235 ft 518 kts 160°
2026-04-11 05:36 38.38399 -79.27309 33245 ft 518 kts 160°
2026-04-11 05:36 38.31865 -79.23404 33235 ft 519 kts 160°
2026-04-11 05:37 38.25332 -79.19507 33230 ft 518 kts 160°
2026-04-11 05:37 38.18807 -79.15622 33249 ft 517 kts 160°
2026-04-11 05:38 38.12280 -79.11745 33239 ft 517 kts 160°
2026-04-11 05:38 38.05758 -79.07879 33236 ft 517 kts 160°
2026-04-11 05:39 37.99237 -79.04020 33233 ft 517 kts 160°
2026-04-11 05:39 37.92720 -79.00171 33227 ft 516 kts 160°
2026-04-11 05:40 37.86250 -78.96358 33220 ft 516 kts 160°
2026-04-11 05:40 37.79735 -78.92525 33227 ft 516 kts 160°
2026-04-11 05:41 37.73207 -78.88694 33212 ft 516 kts 160°
2026-04-11 05:41 37.66686 -78.84873 33220 ft 516 kts 160°
2026-04-11 05:42 37.60171 -78.81063 33209 ft 516 kts 160°
2026-04-11 05:42 37.53700 -78.77285 33226 ft 515 kts 160°
2026-04-11 05:43 37.47192 -78.73493 33230 ft 515 kts 159°
2026-04-11 05:43 37.40689 -78.69712 33211 ft 514 kts 159°
2026-04-11 05:44 37.34193 -78.65942 33225 ft 513 kts 159°
2026-04-11 05:44 37.27711 -78.62186 33215 ft 512 kts 159°
2026-04-11 05:45 37.22329 -78.59073 33223 ft 511 kts 159°
2026-04-11 05:45 37.15999 -78.54963 33225 ft 512 kts 154°
2026-04-11 05:46 37.09810 -78.50536 33228 ft 511 kts 154°
2026-04-11 05:46 37.03636 -78.46120 33239 ft 510 kts 154°
2026-04-11 05:47 36.97456 -78.41741 33243 ft 509 kts 154°
2026-04-11 05:47 36.91317 -78.37418 33253 ft 509 kts 154°
2026-04-11 05:48 36.85136 -78.33078 33258 ft 509 kts 154°
2026-04-11 05:48 36.78953 -78.28741 33248 ft 510 kts 154°
2026-04-11 05:49 36.72757 -78.24402 33289 ft 511 kts 154°
2026-04-11 05:49 36.66556 -78.20067 33297 ft 511 kts 154°
2026-04-11 05:50 36.60349 -78.15735 33300 ft 511 kts 154°
2026-04-11 05:50 36.54177 -78.11437 32952 ft 516 kts 154°
2026-04-11 05:51 36.51019 -78.09244 32249 ft 519 kts 154°
2026-04-11 05:51 36.47880 -78.07061 31707 ft 512 kts 154°
2026-04-11 05:51 36.44771 -78.04901 31150 ft 507 kts 153°
2026-04-11 05:51 36.41710 -78.02775 30621 ft 502 kts 153°
2026-04-11 05:52 36.38673 -78.00669 30058 ft 498 kts 153°
2026-04-11 05:52 36.35659 -77.98581 29453 ft 493 kts 153°
2026-04-11 05:52 36.32672 -77.96515 28923 ft 488 kts 153°
2026-04-11 05:52 36.29726 -77.94479 28414 ft 482 kts 153°
2026-04-11 05:53 36.26846 -77.92490 27881 ft 478 kts 153°
2026-04-11 05:53 36.23958 -77.90498 27374 ft 473 kts 153°
2026-04-11 05:53 36.21097 -77.88527 26869 ft 469 kts 153°
2026-04-11 05:53 36.18245 -77.86563 26372 ft 465 kts 153°
2026-04-11 05:54 36.15428 -77.84625 25869 ft 461 kts 153°
2026-04-11 05:54 36.12632 -77.82703 25403 ft 458 kts 153°
2026-04-11 05:54 36.09853 -77.80794 24921 ft 455 kts 153°
2026-04-11 05:54 36.07095 -77.78901 24441 ft 452 kts 153°
2026-04-11 05:55 36.04352 -77.77019 23941 ft 450 kts 153°
2026-04-11 05:55 36.01617 -77.75145 23394 ft 447 kts 153°
2026-04-11 05:55 35.98909 -77.73290 22879 ft 443 kts 153°
2026-04-11 05:55 35.96223 -77.71452 22396 ft 440 kts 153°
2026-04-11 05:56 35.93557 -77.69630 21926 ft 436 kts 153°
2026-04-11 05:56 35.90914 -77.67824 21470 ft 432 kts 153°
2026-04-11 05:56 35.88294 -77.66036 21006 ft 428 kts 153°
2026-04-11 05:56 35.85733 -77.64288 20564 ft 425 kts 153°
2026-04-11 05:57 35.83157 -77.62533 20125 ft 421 kts 153°
2026-04-11 05:57 35.80600 -77.60791 19670 ft 418 kts 153°
2026-04-11 05:57 35.78060 -77.59063 19220 ft 415 kts 153°
2026-04-11 05:57 35.75536 -77.57346 18787 ft 412 kts 153°
2026-04-11 05:58 35.73029 -77.55642 18283 ft 410 kts 153°
2026-04-11 05:58 35.70542 -77.53953 17808 ft 407 kts 153°
2026-04-11 05:58 35.68071 -77.52276 17230 ft 405 kts 153°
2026-04-11 05:58 35.65597 -77.50599 16670 ft 404 kts 153°
2026-04-11 05:59 35.63144 -77.48936 16205 ft 400 kts 152°
2026-04-11 05:59 35.60719 -77.47294 15755 ft 396 kts 152°
2026-04-11 05:59 35.58311 -77.45664 15312 ft 392 kts 152°
2026-04-11 05:59 35.55934 -77.44057 14883 ft 388 kts 152°
2026-04-11 06:00 35.53610 -77.42486 14455 ft 384 kts 152°
2026-04-11 06:00 35.51253 -77.40894 14026 ft 380 kts 152°
2026-04-11 06:00 35.48967 -77.39351 13561 ft 376 kts 152°
2026-04-11 06:00 35.46683 -77.37811 13115 ft 372 kts 152°
2026-04-11 06:01 35.44428 -77.36291 12683 ft 368 kts 152°
2026-04-11 06:01 35.42196 -77.34788 12274 ft 363 kts 152°
2026-04-11 06:01 35.39988 -77.33301 11880 ft 359 kts 152°
2026-04-11 06:01 35.37807 -77.31834 11475 ft 355 kts 152°
2026-04-11 06:02 35.35650 -77.30384 11093 ft 352 kts 151°
2026-04-11 06:02 35.33518 -77.28951 10855 ft 343 kts 151°
2026-04-11 06:02 35.31491 -77.27589 10670 ft 319 kts 151°
2026-04-11 06:02 35.29646 -77.26351 10525 ft 292 kts 151°
2026-04-11 06:03 35.27940 -77.25207 10402 ft 268 kts 151°
2026-04-11 06:03 35.26282 -77.24095 10358 ft 278 kts 151°
2026-04-11 06:03 35.24547 -77.22932 10257 ft 289 kts 151°
2026-04-11 06:03 35.22773 -77.21743 10124 ft 290 kts 151°
2026-04-11 06:04 35.21013 -77.20565 9884 ft 287 kts 151°
2026-04-11 06:04 35.19267 -77.19396 9550 ft 283 kts 151°
2026-04-11 06:04 35.17554 -77.18250 9236 ft 278 kts 151°
2026-04-11 06:04 35.15870 -77.17124 8928 ft 273 kts 151°
2026-04-11 06:05 35.14207 -77.16013 8628 ft 274 kts 151°
2026-04-11 06:05 35.12517 -77.14883 8341 ft 280 kts 151°
2026-04-11 06:05 35.10796 -77.13734 8024 ft 283 kts 151°
2026-04-11 06:05 35.09095 -77.12598 7711 ft 281 kts 151°
2026-04-11 06:06 35.06039 -77.09842 6862 ft 275 kts 118°
2026-04-11 06:06 35.05437 -77.07660 6424 ft 270 kts 96°
2026-04-11 06:06 35.05277 -77.05386 6031 ft 268 kts 91°
2026-04-11 06:07 35.05198 -77.03122 5663 ft 266 kts 90°
2026-04-11 06:07 35.05139 -77.00872 5295 ft 265 kts 90°
2026-04-11 06:07 35.05087 -76.98629 4917 ft 264 kts 90°
2026-04-11 06:07 35.05040 -76.96396 4511 ft 264 kts 90°
2026-04-11 06:08 35.05000 -76.94153 4088 ft 265 kts 90°
2026-04-11 06:08 35.04964 -76.91900 3670 ft 266 kts 90°
2026-04-11 06:08 35.04933 -76.89640 3289 ft 265 kts 90°
2026-04-11 06:08 35.04910 -76.87395 2905 ft 264 kts 90°
2026-04-11 06:09 35.04901 -76.85184 2542 ft 263 kts 90°
2026-04-11 06:09 35.04903 -76.82948 2189 ft 262 kts 90°
2026-04-11 06:09 35.04913 -76.80730 1829 ft 260 kts 90°
2026-04-11 06:09 35.04931 -76.78566 1698 ft 248 kts 90°
2026-04-11 06:10 35.04928 -76.76530 1594 ft 230 kts 99°
2026-04-11 06:10 35.04365 -76.74857 1625 ft 204 kts 135°
2026-04-11 06:10 35.03230 -76.74044 1595 ft 184 kts 176°
2026-04-11 06:10 35.02058 -76.74343 1603 ft 172 kts 214°
2026-04-11 06:11 35.01079 -76.75221 1615 ft 178 kts 221°
2026-04-11 06:11 35.00104 -76.76176 1608 ft 179 kts 222°
2026-04-11 06:11 34.99192 -76.77167 1577 ft 173 kts 226°
2026-04-11 06:11 34.98349 -76.78189 1602 ft 172 kts 227°
2026-04-11 06:12 34.97537 -76.79194 1573 ft 159 kts 227°
2026-04-11 06:12 34.96803 -76.80106 1471 ft 148 kts 227°
2026-04-11 06:12 34.96102 -76.80976 1297 ft 138 kts 227°
2026-04-11 06:12 34.95438 -76.81801 1097 ft 138 kts 227°
2026-04-11 06:13 34.94761 -76.82646 916 ft 141 kts 226°
2026-04-11 06:13 34.94071 -76.83500 747 ft 142 kts 226°
2026-04-11 06:13 34.93362 -76.84377 525 ft 147 kts 226°
2026-04-11 06:13 34.92643 -76.85265 297 ft 145 kts 225°
2026-04-11 06:14 34.91943 -76.86132 106 ft 144 kts 226°
2026-04-11 06:14 34.91259 -76.86980 35 ft 131 kts 225°
2026-04-11 06:14 34.90738 -76.87617 40 ft 79 kts 225°
2026-04-11 06:14 34.90491 -76.87919 40 ft 13 kts 225°
2026-04-11 06:15 34.90426 -76.87999 40 ft 13 kts 225°
2026-04-11 06:15 34.90384 -76.88051 38 ft 8 kts 225°
2026-04-11 06:15 34.90344 -76.88102 39 ft 9 kts 225°
2026-04-11 06:15 34.90298 -76.88158 40 ft 10 kts 225°
2026-04-11 06:16 34.90253 -76.88225 39 ft 11 kts 239°
2026-04-11 06:16 34.90210 -76.88299 40 ft 11 kts 234°
2026-04-11 06:16 34.90190 -76.88395 41 ft 13 kts 282°
2026-04-11 06:16 34.90248 -76.88479 40 ft 13 kts 332°
2026-04-11 06:17 34.90332 -76.88525 40 ft 13 kts 328°
2026-04-11 06:17 34.90386 -76.88614 39 ft 14 kts 283°
2026-04-11 06:17 34.90354 -76.88716 40 ft 8 kts 225°
2026-04-11 06:17 34.90353 -76.88717 40 ft 0 kts 225°